FW9216 Weather Reports


time (UTC)temp
C
wind
direction
speed
KPH
gust
KPH
rain 1hr
cm
rain 24hr
cm
rain mn
cm
humidity
%
barometer
mb
20260503071605 7 278 0.0 0.0 0.00 0.00 0.00 89 1013.3
20260503070604 7 278 0.0 0.0 0.00 0.00 0.00 88 1013.2
20260503070105 7 278 0.0 0.0 0.00 0.00 0.00 88 1013.1
20260503055105 8 278 0.0 0.0 0.00 0.00 0.00 84 1013.0
20260503054605 8 278 0.0 0.0 0.00 0.00 0.00 84 1013.0
20260503054105 8 278 0.0 0.0 0.00 0.00 0.00 83 1013.1
20260503053104 8 278 0.0 0.0 0.00 0.00 0.00 83 1013.0
20260503052105 9 278 0.0 0.0 0.00 0.00 0.00 81 1013.1
20260503051604 9 278 0.0 0.0 0.00 0.00 0.00 81 1013.2
20260503050604 10 278 0.0 0.0 0.00 0.00 0.00 79 1013.1
20260503045605 10 278 0.0 0.0 0.00 0.00 0.00 78 1013.0
20260503045104 10 278 0.0 0.0 0.00 0.00 0.00 76 1013.0
20260503043104 11 278 0.0 0.0 0.00 0.00 0.00 75 1013.0
20260503035104 13 278 0.0 0.0 0.00 0.00 0.00 65 1012.5
20260503033604 14 278 0.0 0.0 0.00 0.00 0.00 59 1012.4
20260503032604 15 278 0.0 0.0 0.00 0.00 0.00 57 1012.3
20260503030104 17 278 0.0 0.0 0.00 0.00 0.00 50 1011.9
20260503025105 18 278 0.0 1.6 0.00 0.00 0.00 48 1011.9
20260503024104 19 280 0.0 1.6 0.00 0.00 0.00 47 1011.9
20260503023605 20 294 0.0 1.6 0.00 0.00 0.00 47 1011.8
20260503022604 21 324 0.0 0.0 0.00 0.00 0.00 44 1011.8
20260503021105 23 326 0.0 0.0 0.00 0.00 0.00 38 1011.7
20260503015604 23 309 0.0 3.2 0.00 0.00 0.00 36 1011.7
20260503015104 23 308 0.0 1.6 0.00 0.00 0.00 36 1011.7
20260503014605 23 313 0.0 3.2 0.00 0.00 0.00 37 1011.6
20260503014104 23 310 0.0 3.2 0.00 0.00 0.00 36 1011.7
20260503013605 23 306 0.0 3.2 0.00 0.00 0.00 37 1011.7
20260503012105 24 322 1.6 3.2 0.00 0.00 0.00 34 1011.8
20260503011605 24 307 1.6 4.8 0.00 0.00 0.00 33 1011.9
20260503011104 25 269 1.6 4.8 0.00 0.00 0.00 31 1011.9
20260503010604 25 314 1.6 3.2 0.00 0.00 0.00 31 1012.0
20260503004604 25 320 1.6 9.7 0.00 0.00 0.00 29 1012.3
20260503003104 25 271 3.2 8.0 0.00 0.00 0.00 30 1012.2
20260502235604 25 292 3.2 11.3 0.00 0.00 0.00 30 1012.2
20260502235104 25 314 1.6 4.8 0.00 0.00 0.00 28 1012.2
20260502234104 26 66 1.6 4.8 0.00 0.00 0.00 28 1012.3
20260502233104 25 301 1.6 9.7 0.00 0.00 0.00 27 1012.4
20260502232105 25 35 3.2 8.0 0.00 0.00 0.00 26 1012.5
20260502231104 25 268 1.6 11.3 0.00 0.00 0.00 27 1012.6
20260502230604 25 353 3.2 11.3 0.00 0.00 0.00 29 1012.6
20260502225604 25 273 1.6 9.7 0.00 0.00 0.00 27 1012.7
20260502225104 25 302 3.2 9.7 0.00 0.00 0.00 28 1012.7
20260502224604 25 300 3.2 11.3 0.00 0.00 0.00 30 1012.8
20260502224104 25 285 4.8 12.9 0.00 0.00 0.00 28 1012.8
20260502223604 25 41 4.8 12.9 0.00 0.00 0.00 28 1012.9
20260502221104 25 241 3.2 11.3 0.00 0.00 0.00 27 1013.1
20260502215604 25 295 3.2 8.0 0.00 0.00 0.00 26 1013.2
20260502215104 25 241 3.2 9.7 0.00 0.00 0.00 26 1013.2
20260502213604 25 265 3.2 8.0 0.00 0.00 0.00 28 1013.4
20260502212604 25 113 1.6 8.0 0.00 0.00 0.00 30 1013.4
20260502211604 25 341 4.8 16.1 0.00 0.00 0.00 26 1013.5
20260502210604 25 318 4.8 8.0 0.00 0.00 0.00 26 1013.5
20260502204604 24 88 1.6 8.0 0.00 0.00 0.00 29 1013.6
20260502204104 24 79 3.2 9.7 0.00 0.00 0.00 28 1013.6
20260502203104 25 55 3.2 12.9 0.00 0.00 0.00 29 1013.6
20260502202104 24 231 0.0 11.3 0.00 0.00 0.00 30 1013.7
20260502201604 24 69 4.8 11.3 0.00 0.00 0.00 28 1013.8
20260502201104 24 58 4.8 11.3 0.00 0.00 0.00 31 1013.9
20260502200604 24 94 1.6 8.0 0.00 0.00 0.00 32 1013.9
20260502200105 24 264 3.2 8.0 0.00 0.00 0.00 29 1013.9
20260502195604 24 294 3.2 4.8 0.00 0.00 0.00 32 1014.0
20260502194604 25 24 3.2 4.8 0.00 0.00 0.00 33 1014.1
20260502193604 24 128 1.6 4.8 0.00 0.00 0.00 30 1014.2
20260502193104 24 308 3.2 4.8 0.00 0.00 0.00 31 1014.2
20260502192604 23 261 1.6 9.7 0.00 0.00 0.00 33 1014.2
20260502185604 23 113 3.2 4.8 0.00 0.00 0.00 33 1014.6
20260502184604 23 186 1.6 4.8 0.00 0.00 0.00 33 1014.7
20260502183603 23 82 1.6 8.0 0.00 0.00 0.00 39 1014.7
20260502182604 23 121 1.6 4.8 0.00 0.00 0.00 36 1014.7
20260502181104 23 109 4.8 8.0 0.00 0.00 0.00 32 1014.8
20260502164104 20 164 4.8 9.7 0.00 0.00 0.00 42 1015.0
20260502163604 20 193 3.2 12.9 0.00 0.00 0.00 45 1015.0
20260502163104 20 175 3.2 12.9 0.00 0.00 0.00 42 1015.0
20260502162104 20 166 1.6 12.9 0.00 0.00 0.00 43 1015.1
20260502160604 19 103 1.6 8.0 0.00 0.00 0.00 45 1015.2
20260502160105 19 103 1.6 11.3 0.00 0.00 0.00 47 1015.2
20260502152104 16 104 3.2 4.8 0.00 0.00 0.00 59 1015.3
20260502151604 16 79 0.0 4.8 0.00 0.00 0.00 60 1015.3
20260502150604 14 93 1.6 4.8 0.00 0.00 0.00 68 1015.3
20260502123604 3 350 0.0 0.0 0.00 0.00 0.00 90 1015.1
20260502123105 3 350 0.0 0.0 0.00 0.00 0.00 90 1015.1
20260502121603 4 350 0.0 0.0 0.00 0.00 0.00 90 1015.1
20260502121103 4 350 0.0 0.0 0.00 0.00 0.00 90 1015.1
20260502115604 4 350 0.0 0.0 0.00 0.00 0.00 90 1015.1
20260502113605 4 350 0.0 0.0 0.00 0.00 0.00 89 1014.9
20260502113105 5 350 0.0 0.0 0.00 0.00 0.00 89 1014.9
20260502111605 5 350 0.0 0.0 0.00 0.00 0.00 89 1014.9
20260502110105 5 350 0.0 0.0 0.00 0.00 0.00 89 1014.8
20260502105610 5 350 0.0 0.0 0.00 0.00 0.00 88 1014.9
20260502105105 5 350 0.0 0.0 0.00 0.00 0.00 89 1014.9
20260502103105 5 350 0.0 0.0 0.00 0.00 0.00 90 1014.9
20260502102105 5 350 0.0 0.0 0.00 0.00 0.00 90 1014.8
20260502100605 5 350 0.0 0.0 0.00 0.00 0.00 90 1014.9
20260502100106 5 350 0.0 0.0 0.00 0.00 0.00 90 1014.9
20260502090605 5 350 0.0 0.0 0.00 0.00 0.00 89 1015.1
20260502090105 6 350 0.0 0.0 0.00 0.00 0.00 89 1015.0